STARLINK-11611, 63138

Orbit data source: Space-Track

STARLINK-11611, 63138 is a payload satellite owned by SpaceX/Seattle (US) in LEO that was launched on Mon, 03 Mar 2025 UTC via an FALCON 9 launch vehicle from the Air Force Eastern Test Range (AFETR). Payload-class satellites include a variety of spacecraft equipped with specific instruments for various scientific and technological missions. These include communications satellites like Starlink; space stations such as the ISS; scientific satellites like the Hubble; Earth observation satellites from companies like Planet Labs, Umbra, and HawkEye 360; GPS; miniature CubeSats for education and research; and military/defense satellites.

Loading next visibility...
Identifier
63138, 2025-043G
Orbit
LEO
Country
Flag of USUS
Related business
Manufacturer
SpaceX/Seattle
Mission
Operational Commercial Communications
Bus & Motor
STARLINK V2MD, Unknown motor
Mass
960 kg wet, ~910 kg dry
Launch date (UTC)
2025-03-03 (8 months ago)
Launch vehicle
FALCON 9
Launch site
Air Force Eastern Test Range (AFETR)
Object type
Payload
Rocket body
Debris
Shape & HBR
Box + 2 Pan, 18.1 m
Radar Cross Section
36.964 m², Large (>1 m²)

Expand to show TLE details & history
Last TLE update: 12 hours ago

TLE from 12 hours ago
0 STARLINK-11611
1 63138U 25043G   25306.46122524  .00244064  00000-0  18328-2 0  9991
2 63138  42.9977 297.4943 0000493 254.6794 105.4019 15.71065352 39469
Epoch: 2025-11-02T11:04Z
TLE epoch observation values (Epoch: 2025-11-02T11:04:09.860Z)
Latitude
-0.00004°
Longitude
89.47655°
Altitude
355.71 km
Speed
7.698 km/s
True Right ascension
19h 49m 58s
True Declination
0° 00' 00"
Sunlit
Object was in daylight at epoch
Visualization orbit readout
Latitude
Unknown
Longitude
Unknown
Altitude
Unknown
Speed
Unknown
Apparent Right ascension
Unknown
Apparent Declination
Unknown
Sunlit
N/A
Visualization observer readout
Local Sidereal Time
18:40:53
Azimuth
Unknown
Elevation
Unknown
Doppler factor
Unknown
Orbital elements
Apogee altitude
358.165 km
Perigee altitude
357.501 km
Semi-major axis
6,735.97 km
Eccentricity
0.00005
Inclination
42.9977°
RAAN
297.4943°
Arg. of periapsis
254.6794°
True anomaly
105.40735°
Mean anomaly
105.4019°
Eccentric anomaly
105.40462°
Mean motion
3.92593 °/min
Orbital period
91.7 mins
BSTAR
0.0018328
Loading maneuver chart data...
Computing Atmospheric mass density...
Loading historical data...
Loading historical data...
Loading historical data...
Loading historical data...
Loading historical data...
Loading historical data...
Loading historical data...

Documentation

Showing up to 5 results
|